Weather Roundup
Issued by NWS Chicago, IL

Home | Current Version | Previous Version | Graphics & Text | Print | Product List | Glossary On
Versions: 1 2 3 4 5 6 7 8 9 10 11 12 13 14 15 16 17 18 19 20 21 22 23 24 25 26 27 28 29 30 31 32 33 34 35 36 37 38 39 40 41 42 43 44 45 46 47 48 49 50
000
NZUS59 KLOT 281221
HRRLOT

CHICAGO AREA WEATHER ROUNDUP
NATIONAL WEATHER SERVICE CHICAGO/ROMEOVILLE IL
700 AM CDT THU MAY 28 2015

NOTE: "FAIR" INDICATES FEW OR NO CLOUDS BELOW 12,000 FEET WITH NO
SIGNIFICANT WEATHER AND/OR OBSTRUCTIONS TO VISIBILITY.

* THESE STATIONS ARE NOT UNDER NWS QUALITY CONTROL. THEY ALSO MAY NOT
  REPORT WEATHER SUCH AS PRECIPITATION OR FOG.

ILZ005-006-012>014-019>023-281300-
NORTHEAST ILLINOIS

CITY           SKY/WX    TMP DP  RH WIND       PRES   REMARKS
OHARE          MOSUNNY   61  55  81 SW6       30.19R
6HR MIN TEMP:  54; 6HR MAX TEMP:  61;

MIDWAY         MOSUNNY   63  57  81 S7        30.19R
6HR MIN TEMP:  60; 6HR MAX TEMP:  64;

AURORA         SUNNY     59  54  83 CALM      30.19F
6HR MIN TEMP:  52; 6HR MAX TEMP:  59;

LANSING*       SUNNY     58  55  89 CALM      30.21S
JOLIET*        SUNNY     61  58  92 CALM      30.19F
WAUKEGAN       SUNNY     60  55  83 SW7       30.18R
6HR MIN TEMP:  54; 6HR MAX TEMP:  60;

DUPAGE AIRPORT SUNNY     60  56  86 SE3       30.19S
6HR MIN TEMP:  52; 6HR MAX TEMP:  60;

WHEELING       SUNNY     60  55  83 CALM      30.21R
6HR MIN TEMP:  52; 6HR MAX TEMP:  60;

KANKAKEE*      SUNNY     59  57  92 CALM      30.21R
MORRIS*        SUNNY     60  56  88 E3        30.16S
LEWIS AIRPORT* SUNNY     60  56  88 E3        30.19F
NORTHERLY IS     N/A     64  54  69 SW7         N/A
$$

WIZ051-052-058>065-066-070>072-281300-
SOUTHEAST WISCONSIN

CITY           SKY/WX    TMP DP  RH WIND       PRES   REMARKS
MILWAUKEE      MOSUNNY   64  57  78 SW3       30.17S
6HR MIN TEMP:  59; 6HR MAX TEMP:  64;

KENOSHA*       SUNNY     61  57  87 SW3       30.19R
RACINE*        SUNNY     64  56  75 W5        30.19S
BURLINGTON     SUNNY     56  56  99 SW3       30.18S
WAUKESHA       SUNNY     61  57  88 S3        30.19R
WEST BEND      SUNNY     64  59  82 CALM      30.17S
$$

INZ001>003-010>013-019-020-281300-
NORTHWEST INDIANA

CITY           SKY/WX    TMP DP  RH WIND       PRES   REMARKS
GARY*          MOSUNNY   61  57  88 CALM      30.22R
MICHIGAN CITY* NOT AVBL
RENSSELAER*    NOT AVBL
VALPARAISO     SUNNY     58  55  90 SW6       30.23R
$$

LMZ740>746-281300-
SOUTHERN LAKE MICHIGAN

STATION/POSITION TIME  SKY/WX   TEMP WIND        PRES    VSBY
                                AIR  DIR/SP/G
                 (UTC)          (F)  (DEG/KT/KT) (MB)    (MI)
HARRISON CRIB    1200            64  200/ 15/ 17   N/A
BURNHAM HARBOR   1200            63  220/  6/  7   N/A
CALUMET HARBOR   1100            60  190/  2/  4   N/A
BURNS HARBOR     1100            61  170/  3/  5 1023.0R
MICHIGAN CITY    1200            62  140/  7/  8   N/A
$$

ABBREVIATIONS USED IN REMARKS
   TC - TEMPERATURE IN CELSIUS
  WCI - WIND CHILL INDEX
   HX - HEAT INDEX
  VSB - VISIBILITY
$$


USA.gov is the U.S. government's official web portal to all federal, state and local government web resources and services.